Vorticity
nan nan nan nan nan nan nan nan nan nan nan nan nan nan nan nan nan nan nan nan nan nan nan nan nan nan nan nan nan nan nan nan nan nan nan nan nan nan nan nan nan nan nan nan nan nan nan nan nan nan nan nan nan nan nan nan nan nan nan nan nan nan nan nan nan nan nan nan nan
nan 11 11 11 11 11 10 10 10 10 10 10 11 12 12 13 13 14 14 16 18 18 18 16 15 15 15 15 14 12 11 10 9 8 7 8 10 10 9 8 8 8 7 7 7 7 7 8 10 9 9 8 7 7 8 8 9 9 9 9 10 11 11 10 10 10 9 8 nan
nan 12 12 11 10 9 9 9 8 8 9 10 12 13 14 14 14 14 15 15 17 17 16 13 12 12 11 12 13 12 11 10 8 8 7 6 7 8 8 7 7 7 7 7 8 9 9 9 9 9 8 7 7 8 8 9 9 10 12 12 11 11 10 10 11 10 9 10 nan
nan 12 11 10 10 10 9 8 8 8 10 11 12 13 13 13 13 13 12 12 13 15 15 15 12 10 9 9 11 12 11 10 9 8 7 7 6 6 7 7 6 6 6 7 8 9 9 10 9 7 6 6 7 8 7 7 8 10 12 14 12 10 8 9 10 10 9 9 nan
nan 12 11 11 11 11 10 9 8 9 10 12 12 12 13 12 12 12 12 12 13 14 15 15 13 11 10 9 8 8 8 8 7 6 6 7 6 6 6 7 7 7 6 6 7 7 7 8 9 7 7 7 8 7 6 6 7 8 9 11 10 10 9 8 9 9 9 8 nan
nan 11 11 10 10 10 10 10 10 10 11 11 12 13 13 13 14 14 14 13 11 10 10 10 10 9 8 7 6 6 6 5 6 6 7 6 5 6 6 7 7 8 7 6 6 6 6 7 8 8 8 8 9 9 8 9 9 9 8 8 8 9 9 9 9 10 9 7 nan
nan 9 9 9 10 11 11 12 12 12 12 12 12 13 13 14 15 14 13 11 9 7 6 5 8 8 8 6 6 6 7 6 6 7 6 6 7 7 7 6 7 7 7 6 6 6 6 7 7 8 8 8 10 13 13 12 11 9 7 6 8 8 9 9 8 9 10 8 nan
nan 10 9 10 11 11 11 12 13 13 13 13 12 12 12 12 12 11 10 9 9 9 8 8 9 10 9 8 8 7 7 7 6 7 7 8 7 7 7 6 6 6 6 6 6 6 6 6 7 7 8 8 10 13 15 12 9 7 6 6 7 8 9 9 8 9 10 10 nan
nan 10 10 11 11 11 11 12 13 13 12 12 11 10 10 10 9 7 7 8 9 10 11 11 10 9 9 8 7 6 6 6 7 7 8 7 7 6 6 6 6 6 6 6 6 6 5 5 6 7 7 8 7 9 10 10 8 7 7 8 8 8 9 9 9 9 10 10 nan
nan 10 11 11 11 11 11 12 12 12 11 10 10 10 10 9 9 8 8 8 10 11 11 10 9 7 7 6 6 6 7 6 6 7 7 7 7 7 6 6 5 5 5 6 7 8 7 6 6 6 5 6 7 7 8 9 9 8 7 9 9 8 8 8 9 9 10 10 nan
nan 10 11 10 11 11 12 11 10 10 10 10 9 9 10 10 9 10 10 11 11 11 10 9 7 6 5 6 6 7 6 6 7 7 7 7 7 6 6 5 5 5 5 5 7 8 9 8 8 6 4 5 8 10 11 11 11 10 7 7 9 8 8 7 8 8 9 10 nan
nan 10 11 11 12 12 12 11 10 9 10 9 9 9 10 10 10 10 10 11 9 7 7 7 7 7 6 7 7 7 7 7 7 7 7 7 7 6 5 5 5 6 6 5 6 7 8 9 8 8 7 6 8 11 12 11 10 9 7 6 7 8 7 6 6 7 9 10 nan
nan 10 11 11 13 13 11 10 9 9 9 9 9 9 9 9 9 8 9 9 6 5 6 7 7 7 7 8 7 7 7 7 7 7 8 7 6 6 5 6 6 6 7 6 6 6 6 8 9 9 8 8 7 9 11 11 9 9 7 6 6 7 7 7 7 7 7 8 nan
nan 10 10 11 12 12 10 9 9 9 9 8 8 8 8 8 8 9 10 9 6 6 7 7 7 8 8 8 7 7 6 7 8 7 7 7 6 6 6 6 7 6 6 7 7 8 7 8 9 10 10 9 7 8 9 10 9 9 9 8 7 7 7 8 8 7 6 6 nan
nan 10 10 10 11 10 9 9 8 8 8 8 7 7 7 8 9 11 12 11 8 8 8 8 8 9 9 7 6 6 6 7 7 6 6 6 6 6 6 6 7 7 6 7 8 10 10 10 10 10 10 9 8 9 9 10 10 10 10 9 9 8 7 8 8 7 7 6 nan
nan 9 9 10 10 10 9 8 8 8 8 7 7 8 9 9 10 12 12 10 9 9 10 9 8 8 8 8 7 7 6 7 7 6 6 6 7 7 7 7 8 8 8 8 8 9 11 11 11 11 10 10 10 10 10 10 10 10 10 9 8 8 7 8 8 8 8 8 nan
nan 9 9 10 10 9 8 8 8 8 8 7 8 9 9 10 11 11 11 9 9 10 10 8 7 8 9 8 8 8 7 7 7 7 8 8 9 9 9 9 9 10 10 10 8 8 9 9 10 11 12 11 11 11 11 10 10 10 9 8 8 8 8 8 8 9 9 9 nan
nan 9 9 9 9 8 8 7 8 8 8 8 9 10 10 11 11 11 10 10 12 12 10 7 7 8 9 8 8 8 8 9 9 9 9 10 10 10 10 10 10 10 10 10 9 9 9 9 9 10 12 12 12 11 11 10 9 9 9 8 8 9 9 9 9 9 10 10 nan
nan 9 8 8 8 8 8 8 9 10 11 11 11 11 11 11 11 10 10 11 13 14 12 9 8 8 8 8 7 8 9 11 11 10 10 11 11 11 10 9 9 9 10 10 10 10 10 10 10 10 10 10 10 10 10 9 9 9 9 10 10 10 10 10 10 10 10 9 nan
nan 8 8 8 9 9 10 10 11 12 13 12 12 10 9 9 9 9 9 9 11 11 10 9 7 7 7 6 7 7 9 12 12 11 10 10 10 10 9 9 9 9 10 10 10 10 10 10 11 11 10 9 9 8 9 9 9 9 10 10 11 11 10 10 10 10 10 10 nan
nan 9 9 9 10 10 10 11 11 11 11 10 8 7 7 7 7 7 7 7 6 6 5 5 6 6 6 6 7 8 9 11 12 12 11 10 9 9 10 10 9 9 9 9 9 10 10 11 11 11 11 10 10 9 9 9 9 10 9 9 10 10 10 10 10 10 10 10 nan
nan 10 11 11 11 10 10 9 9 8 7 6 5 6 6 6 6 6 5 5 4 4 4 5 6 7 7 7 8 9 10 11 11 11 11 10 10 10 10 9 8 7 7 8 10 11 12 12 12 11 11 11 11 10 10 9 9 9 9 8 8 9 10 10 11 11 11 11 nan
nan 11 12 12 11 10 8 6 6 6 5 5 6 7 6 6 6 6 6 5 5 5 5 7 8 8 9 9 10 10 11 11 11 11 10 9 8 8 7 7 7 8 9 12 12 12 12 12 12 13 12 12 12 11 11 10 10 9 9 8 9 9 10 11 11 12 12 12 nan
nan 10 10 11 10 8 7 7 7 6 6 6 7 7 8 7 6 7 7 6 6 6 6 7 8 9 10 11 12 13 13 11 9 9 8 7 6 6 6 7 9 11 13 13 10 8 8 9 10 11 12 12 12 12 11 11 10 10 9 9 9 10 10 10 11 11 11 11 nan
nan 8 8 8 9 9 10 11 10 8 7 7 7 7 7 7 8 8 7 7 8 8 8 8 8 9 10 12 14 14 13 9 6 5 5 5 5 7 8 10 12 13 13 10 7 7 6 4 5 7 9 10 10 11 11 11 11 11 11 11 10 10 10 10 10 11 12 12 nan
nan 9 9 9 10 11 11 12 11 9 7 7 7 7 8 8 9 9 8 8 8 9 9 9 10 10 12 13 13 12 9 6 4 4 4 5 7 9 10 10 12 12 10 7 8 9 8 5 4 4 6 8 9 9 10 11 12 12 12 12 12 11 10 9 9 10 11 12 nan
nan 10 10 11 11 11 10 9 9 8 7 7 8 8 8 8 8 8 9 8 9 10 10 11 12 13 14 13 10 7 5 3 4 5 6 8 10 10 11 11 12 10 7 6 7 8 8 8 7 6 7 8 10 11 11 11 12 13 13 13 13 12 11 9 9 8 8 9 nan
nan 10 9 10 10 9 8 8 8 7 7 8 8 8 8 8 8 8 9 9 9 10 11 12 14 14 13 9 6 3 2 3 5 8 11 12 13 13 12 11 9 7 5 4 6 7 8 8 9 9 10 9 13 15 15 13 13 13 13 13 12 11 10 9 9 8 7 7 nan
nan 10 9 9 8 7 7 8 8 8 8 8 9 9 10 10 10 9 9 9 10 11 11 13 13 11 8 4 3 2 4 7 10 12 13 13 14 14 13 10 9 8 6 6 7 7 8 9 11 12 12 15 19 18 16 14 12 11 11 10 10 9 8 7 6 6 6 7 nan
nan 10 9 8 7 7 8 9 10 10 10 11 11 11 11 11 10 11 11 11 12 12 13 12 9 6 3 2 3 6 9 12 14 14 13 12 11 10 10 11 10 9 7 7 7 8 10 12 14 16 17 22 22 16 12 10 9 8 8 8 8 7 6 6 5 5 5 6 nan
nan 10 8 7 7 7 8 10 12 13 13 13 13 12 11 11 11 12 12 13 13 12 11 8 4 2 3 5 9 11 12 14 13 14 14 13 10 9 9 9 8 8 7 7 8 10 12 15 17 18 17 19 19 13 9 8 7 6 6 6 6 6 7 7 8 8 7 6 nan
nan 11 11 10 9 9 9 11 13 14 14 13 12 11 11 11 12 12 11 11 10 9 7 5 4 6 8 11 13 14 14 13 13 12 12 12 11 10 10 9 10 8 7 7 10 13 15 17 17 16 13 14 16 12 9 8 8 7 7 8 8 8 7 6 7 9 9 8 nan
nan 15 14 13 12 11 12 13 13 13 13 13 12 11 11 11 10 10 10 10 9 8 8 8 11 13 15 16 15 14 13 12 11 11 11 11 11 10 10 11 12 9 6 8 12 14 15 15 12 10 9 13 16 14 10 9 8 8 8 9 10 10 10 8 7 8 9 9 nan
nan 15 15 14 14 13 12 12 12 12 12 12 12 12 11 10 9 9 10 11 11 11 12 14 16 17 16 15 13 12 10 10 10 10 11 11 11 10 10 11 10 7 5 9 13 14 13 10 7 6 8 15 18 14 10 8 8 7 7 8 9 10 10 10 10 10 10 10 nan
nan 16 15 14 14 12 12 11 11 11 10 10 11 12 11 10 9 11 13 14 13 12 12 12 13 13 13 12 11 10 9 9 9 10 11 11 10 9 9 9 7 5 6 9 12 10 9 6 4 6 11 19 18 13 10 9 9 8 8 9 9 10 10 11 11 11 12 12 nan
nan 14 14 14 13 13 12 12 10 9 8 9 10 11 11 11 13 14 15 15 12 10 9 9 10 10 10 11 11 11 10 9 9 10 11 10 9 9 9 9 8 5 6 8 9 7 6 4 4 7 15 20 17 12 10 10 10 10 10 10 10 11 12 12 12 12 13 14 nan
nan 10 10 11 11 11 10 9 8 7 8 9 10 11 11 14 16 16 14 13 11 9 9 9 9 10 10 10 9 10 10 9 9 9 10 10 9 9 9 10 9 7 6 6 6 5 4 3 4 9 17 19 13 10 10 10 10 10 11 10 11 13 14 14 14 15 16 15 nan
nan 7 7 8 8 8 8 7 7 7 8 10 11 12 13 15 15 13 11 11 10 9 9 10 9 9 9 9 9 9 10 10 10 9 10 10 10 10 9 9 9 8 6 4 4 3 3 2 4 8 17 17 12 11 10 10 9 9 9 10 13 14 14 14 16 17 15 10 nan
nan 7 7 7 7 6 6 6 7 8 9 12 12 12 13 14 12 10 9 10 11 10 10 9 8 9 9 9 9 10 11 12 12 11 10 10 10 10 9 9 8 7 5 4 4 3 2 2 3 7 17 19 15 12 11 10 9 8 9 11 12 13 14 15 15 13 11 4 nan
nan 6 6 6 7 6 7 7 9 11 11 12 11 12 13 13 11 9 9 10 11 11 10 8 8 8 9 10 10 10 10 12 13 12 11 10 10 11 12 11 7 6 5 5 4 3 1 1 2 7 19 22 15 13 11 9 8 9 9 10 9 11 13 15 12 9 7 5 nan
nan nan nan nan nan nan nan nan nan nan nan nan nan nan nan nan nan nan nan nan nan nan nan nan nan nan nan nan nan nan nan nan nan nan nan nan nan nan nan nan nan nan nan nan nan nan nan nan nan nan nan nan nan nan nan nan nan nan nan nan nan nan nan nan nan nan nan nan nan
CAPE
nan nan nan nan nan nan nan nan nan nan nan nan nan nan nan nan nan nan nan nan nan nan nan nan nan nan nan nan nan nan nan nan nan nan nan nan nan nan nan nan nan nan nan nan nan nan nan nan nan nan nan nan nan nan nan nan nan nan nan nan nan nan nan nan nan nan nan nan nan
nan nan nan nan nan nan nan nan nan nan nan nan nan nan nan nan nan nan nan nan nan nan nan nan nan nan nan nan nan nan nan nan nan nan nan nan nan nan nan nan nan nan nan nan nan nan nan nan nan nan nan nan nan nan nan nan nan nan nan nan nan nan nan nan nan nan nan nan nan
nan nan nan nan nan nan nan nan nan nan nan nan nan nan nan nan nan nan nan nan nan nan nan nan nan nan nan nan nan nan nan nan nan nan nan nan nan nan nan nan nan nan nan nan nan nan nan nan nan nan nan nan nan nan nan nan nan nan nan nan nan nan nan nan nan nan nan nan nan
nan nan nan nan nan nan nan nan nan nan nan nan nan nan nan nan nan nan nan nan nan nan nan nan nan nan nan nan nan nan nan nan nan nan nan nan nan nan nan nan nan nan nan nan nan nan nan nan nan nan nan nan nan nan nan nan nan nan nan nan nan nan nan nan nan nan nan nan nan
nan nan nan nan nan nan nan nan nan nan nan nan nan nan nan nan nan nan nan nan nan nan nan nan nan nan nan nan nan nan nan nan nan nan nan nan nan nan nan nan nan nan nan nan nan nan nan nan nan nan nan nan nan nan nan nan nan nan nan nan nan nan nan nan nan nan nan nan nan
nan nan nan nan nan nan nan nan nan nan nan nan nan nan nan nan nan nan nan nan nan nan nan nan nan nan nan nan nan nan nan nan nan nan nan nan nan nan nan nan nan nan nan nan nan nan nan nan nan nan nan nan nan nan nan nan nan nan nan nan nan nan nan nan nan nan nan nan nan
nan nan nan nan nan nan nan nan nan nan nan nan nan nan nan nan nan nan nan nan nan nan nan nan nan nan nan nan nan nan nan nan nan nan nan nan nan nan nan nan nan nan nan nan nan nan nan nan nan nan nan nan nan nan nan nan nan nan nan nan nan nan nan nan nan nan nan nan nan
nan nan nan nan nan nan nan nan nan nan nan nan nan nan nan nan nan nan nan nan nan nan nan nan nan nan nan nan nan nan nan nan nan nan nan nan nan nan nan nan nan nan nan nan nan nan nan nan nan nan nan nan nan nan nan nan nan nan nan nan nan nan nan nan nan nan nan nan nan
nan nan nan nan nan nan nan nan nan nan nan nan nan nan nan nan nan nan nan nan nan nan nan nan nan nan nan nan nan nan nan nan nan nan nan nan nan nan nan nan nan nan nan nan nan nan nan nan nan nan nan nan nan nan nan nan nan nan nan nan nan nan nan nan nan nan nan nan nan
nan nan nan nan nan nan nan nan nan nan nan nan nan nan nan nan nan nan nan nan nan nan nan nan nan nan nan nan nan nan nan nan nan nan nan nan nan nan nan nan nan nan nan nan nan nan nan nan nan nan nan nan nan nan nan nan nan nan nan nan nan nan nan nan nan nan nan nan nan
nan nan nan nan nan nan nan nan nan nan nan nan nan nan nan nan nan nan nan nan nan nan nan nan nan nan nan nan nan nan nan nan nan nan nan nan nan nan nan nan nan nan nan nan nan nan nan nan nan nan nan nan nan nan nan nan nan nan nan nan nan nan nan nan nan nan nan nan nan
nan nan nan nan nan nan nan nan nan nan nan nan nan nan nan nan nan nan nan nan nan nan nan nan nan nan nan nan nan nan nan nan nan nan nan nan nan nan nan nan nan nan nan nan nan nan nan nan nan nan nan nan nan nan nan nan nan nan nan nan nan nan nan nan nan nan nan nan nan
nan nan nan nan nan nan nan nan nan nan nan nan nan nan nan nan nan nan nan nan nan nan nan nan nan nan nan nan nan nan nan nan nan nan nan nan nan nan nan nan nan nan nan nan nan nan nan nan nan nan nan nan nan nan nan nan nan nan nan nan nan nan nan nan nan nan nan nan nan
nan nan nan nan nan nan nan nan nan nan nan nan nan nan nan nan nan nan nan nan nan nan nan nan nan nan nan nan nan nan nan nan nan nan nan nan nan nan nan nan nan nan nan nan nan nan nan nan nan nan nan nan nan nan nan nan nan nan nan nan nan nan nan nan nan nan nan nan nan
nan nan nan nan nan nan nan nan nan nan nan nan nan nan nan nan nan nan nan nan nan nan nan nan nan nan nan nan nan nan nan nan nan nan nan nan nan nan nan nan nan nan nan nan nan nan nan nan nan nan nan nan nan nan nan nan nan nan nan nan nan nan nan nan nan nan nan nan nan
nan nan nan nan nan nan nan nan nan nan nan nan nan nan nan nan nan nan nan nan nan nan nan nan nan nan nan nan nan nan nan nan nan nan nan nan nan nan nan nan nan nan nan nan nan nan nan nan nan nan nan nan nan nan nan nan nan nan nan nan nan nan nan nan nan nan nan nan nan
nan nan nan nan nan nan nan nan nan nan nan nan nan nan nan nan nan nan nan nan nan nan nan nan nan nan nan nan nan nan nan nan nan nan nan nan nan nan nan nan nan nan nan nan nan nan nan nan nan nan nan nan nan nan nan nan nan nan nan nan nan nan nan nan nan nan nan nan nan
nan nan nan nan nan nan nan nan nan nan nan nan nan nan nan nan nan nan nan nan nan nan nan nan nan nan nan nan nan nan nan nan nan nan nan nan nan nan nan nan nan nan nan nan nan nan nan nan nan nan nan nan nan nan nan nan nan nan nan nan nan nan nan nan nan nan nan nan nan
nan nan nan nan nan nan nan nan nan nan nan nan nan nan nan nan nan nan nan nan nan nan nan nan nan nan nan nan nan nan nan nan nan nan nan nan nan nan nan nan nan nan nan nan nan nan nan nan nan nan nan nan nan nan nan nan nan nan nan nan nan nan nan nan nan nan nan nan nan
nan nan nan nan nan nan nan nan nan nan nan nan nan nan nan nan nan nan nan nan nan nan nan nan nan nan nan nan nan nan nan nan nan nan nan nan nan nan nan nan nan nan nan nan nan nan nan nan nan nan nan nan nan nan nan nan nan nan nan nan nan nan nan nan nan nan nan nan nan
nan nan nan nan nan nan nan nan nan nan nan nan nan nan nan nan nan nan nan nan nan nan nan nan nan nan nan nan nan nan nan nan nan nan nan nan nan nan nan nan nan nan nan nan nan nan nan nan nan nan nan nan nan nan nan nan nan nan nan nan nan nan nan nan nan nan nan nan nan
nan nan nan nan nan nan nan nan nan nan nan nan nan nan nan nan nan nan nan nan nan nan nan nan nan nan nan nan nan nan nan nan nan nan nan nan nan nan nan nan nan nan nan nan nan nan nan nan nan nan nan nan nan nan nan nan nan nan nan nan nan nan nan nan nan nan nan nan nan
nan nan nan nan nan nan nan nan nan nan nan nan nan nan nan nan nan nan nan nan nan nan nan nan nan nan nan nan nan nan nan nan nan nan nan nan nan nan nan nan nan nan nan nan nan nan nan nan nan nan nan nan nan nan nan nan nan nan nan nan nan nan nan nan nan nan nan nan nan
nan nan nan nan nan nan nan nan nan nan nan nan nan nan nan nan nan nan nan nan nan nan nan nan nan nan nan nan nan nan nan nan nan nan nan nan nan nan nan nan nan nan nan nan nan nan nan nan nan nan nan nan nan nan nan nan nan nan nan nan nan nan nan nan nan nan nan nan nan
nan nan nan nan nan nan nan nan nan nan nan nan nan nan nan nan nan nan nan nan nan nan nan nan nan nan nan nan nan nan nan nan nan nan nan nan nan nan nan nan nan nan nan nan nan nan nan nan nan nan nan nan nan nan nan nan nan nan nan nan nan nan nan nan nan nan nan nan nan
nan nan nan nan nan nan nan nan nan nan nan nan nan nan nan nan nan nan nan nan nan nan nan nan nan nan nan nan nan nan nan nan nan nan nan nan nan nan nan nan nan nan nan nan nan nan nan nan nan nan nan nan nan nan nan nan nan nan nan nan nan nan nan nan nan nan nan nan nan
nan nan nan nan nan nan nan nan nan nan nan nan nan nan nan nan nan nan nan nan nan nan nan nan nan nan nan nan nan nan nan nan nan nan nan nan nan nan nan nan nan nan nan nan nan nan nan nan nan nan nan nan nan nan nan nan nan nan nan nan nan nan nan nan nan nan nan nan nan
nan nan nan nan nan nan nan nan nan nan nan nan nan nan nan nan nan nan nan nan nan nan nan nan nan nan nan nan nan nan nan nan nan nan nan nan nan nan nan nan nan nan nan nan nan nan nan nan nan nan nan nan nan nan nan nan nan nan nan nan nan nan nan nan nan nan nan nan nan
nan nan nan nan nan nan nan nan nan nan nan nan nan nan nan nan nan nan nan nan nan nan nan nan nan nan nan nan nan nan nan nan nan nan nan nan nan nan nan nan nan nan nan nan nan nan nan nan nan nan nan nan nan nan nan nan nan nan nan nan nan nan nan nan nan nan nan nan nan
nan nan nan nan nan nan nan nan nan nan nan nan nan nan nan nan nan nan nan nan nan nan nan nan nan nan nan nan nan nan nan nan nan nan nan nan nan nan nan nan nan nan nan nan nan nan nan nan nan nan nan nan nan nan nan nan nan nan nan nan nan nan nan nan nan nan nan nan nan
nan nan nan nan nan nan nan nan nan nan nan nan nan nan nan nan nan nan nan nan nan nan nan nan nan nan nan nan nan nan nan nan nan nan nan nan nan nan nan nan nan nan nan nan nan nan nan nan nan nan nan nan nan nan nan nan nan nan nan nan nan nan nan nan nan nan nan nan nan
nan nan nan nan nan nan nan nan nan nan nan nan nan nan nan nan nan nan nan nan nan nan nan nan nan nan nan nan nan nan nan nan nan nan nan nan nan nan nan nan nan nan nan nan nan nan nan nan nan nan nan nan nan nan nan nan nan nan nan nan nan nan nan nan nan nan nan nan nan
nan nan nan nan nan nan nan nan nan nan nan nan nan nan nan nan nan nan nan nan nan nan nan nan nan nan nan nan nan nan nan nan nan nan nan nan nan nan nan nan nan nan nan nan nan nan nan nan nan nan nan nan nan nan nan nan nan nan nan nan nan nan nan nan nan nan nan nan nan
nan nan nan nan nan nan nan nan nan nan nan nan nan nan nan nan nan nan nan nan nan nan nan nan nan nan nan nan nan nan nan nan nan nan nan nan nan nan nan nan nan nan nan nan nan nan nan nan nan nan nan nan nan nan nan nan nan nan nan nan nan nan nan nan nan nan nan nan nan
nan nan nan nan nan nan nan nan nan nan nan nan nan nan nan nan nan nan nan nan nan nan nan nan nan nan nan nan nan nan nan nan nan nan nan nan nan nan nan nan nan nan nan nan nan nan nan nan nan nan nan nan nan nan nan nan nan nan nan nan nan nan nan nan nan nan nan nan nan
nan nan nan nan nan nan nan nan nan nan nan nan nan nan nan nan nan nan nan nan nan nan nan nan nan nan nan nan nan nan nan nan nan nan nan nan nan nan nan nan nan nan nan nan nan nan nan nan nan nan nan nan nan nan nan nan nan nan nan nan nan nan nan nan nan nan nan nan nan
nan nan nan nan nan nan nan nan nan nan nan nan nan nan nan nan nan nan nan nan nan nan nan nan nan nan nan nan nan nan nan nan nan nan nan nan nan nan nan nan nan nan nan nan nan nan nan nan nan nan nan nan nan nan nan nan nan nan nan nan nan nan nan nan nan nan nan nan nan
nan nan nan nan nan nan nan nan nan nan nan nan nan nan nan nan nan nan nan nan nan nan nan nan nan nan nan nan nan nan nan nan nan nan nan nan nan nan nan nan nan nan nan nan nan nan nan nan nan nan nan nan nan nan nan nan nan nan nan nan nan nan nan nan nan nan nan nan 0
nan nan nan nan nan nan nan nan nan nan nan nan nan nan nan nan nan nan nan nan nan nan nan nan nan nan nan nan nan nan nan nan nan nan nan nan nan nan nan nan nan nan nan nan nan nan nan nan nan nan nan nan nan nan nan nan nan nan nan nan nan nan nan nan nan nan 5 2 6
nan nan nan nan nan nan nan nan nan nan nan nan nan nan nan nan nan nan nan nan nan nan nan nan nan nan nan nan nan nan nan nan nan nan nan nan nan nan nan nan nan nan nan nan nan nan nan nan nan nan nan nan nan nan nan nan nan nan nan nan nan nan nan 4 13 13 nan nan nan
nan nan nan nan nan nan nan nan nan nan nan nan nan nan nan nan nan nan nan nan nan nan nan nan nan nan nan nan nan nan nan nan nan nan nan nan nan nan nan nan nan nan nan nan nan nan nan nan nan nan nan nan nan nan nan nan nan nan nan nan nan 4 4 5 nan nan nan nan nan